Regional Weather Roundup
Issued by NWS Charleston, WV

Home | Current Version | Previous Version | Graphics & Text | Print | Product List | Glossary On
Versions: 1 2 3 4 5 6 7 8 9 10 11 12 13 14 15 16 17 18 19 20 21 22 23 24 25 26 27 28 29 30 31 32 33 34 35 36 37 38 39 40 41 42 43 44 45 46 47 48 49 50
000
ASUS41 KRLX 011910
RWRRLX
West Virginia Regional Weather Roundup
National Weather Service Charleston WV
300 PM EDT WED OCT 01 2014

Note: "fair" indicates few or no clouds below 12,000 feet with no
significant weather and/or obstructions to visibility.

WVZ003-012000-
Northern Panhandle of West Virginia

CITY           SKY/WX    TMP DP  RH WIND       PRES   REMARKS
WHEELING       CLOUDY    65  55  70 NE8       30.02F
$$

WVZ009-012000-
Northwest West Virginia

CITY           SKY/WX    TMP DP  RH WIND       PRES   REMARKS
PARKERSBURG    SUNNY     71  50  47 VRB3      30.03F
$$

WVZ006-012000-
Western West Virginia

CITY           SKY/WX    TMP DP  RH WIND       PRES   REMARKS
HUNTINGTON     MOSUNNY   73  61  65 N6        30.00F
$$

WVZ015-012000-
West Central West Virginia

CITY           SKY/WX    TMP DP  RH WIND       PRES   REMARKS
CHARLESTON     CLOUDY    67  59  75 VRB5      30.02F
$$

WVZ031-012000-
North Central West Virginia

CITY           SKY/WX    TMP DP  RH WIND       PRES   REMARKS
CLARKSBURG     SUNNY     68  58  70 CALM      30.03S
MORGANTOWN     CLOUDY    65  56  72 W3        30.04F
$$

WVZ035-042-045-012000-
South Central West Virginia

CITY           SKY/WX    TMP DP  RH WIND       PRES   REMARKS
BECKLEY        PTSUNNY   75  50  41 W10G20    30.04F
BLUEFIELD      MOSUNNY   75  45  34 W12       30.08F
LEWISBURG      MOSUNNY   78  47  33 W13       30.03S
$$

WVZ047-012000-
Northern Mountains of West Virginia

CITY           SKY/WX    TMP DP  RH WIND       PRES   REMARKS
ELKINS         SUNNY     73  54  51 NW10      30.02S
$$

WVZ052-012000-
Eastern Panhandle of West Virginia

CITY           SKY/WX    TMP DP  RH WIND       PRES   REMARKS
MARTINSBURG    CLOUDY    69  58  67 E3        30.04F
PETERSBURG     CLOUDY   N/A N/A N/A CALM      30.03S
$$


USA.gov is the U.S. government's official web portal to all federal, state and local government web resources and services.